Regional Weather Roundup
Issued by NWS

Home | Current Version | Previous Version | Text Only | Print | Product List | Glossary On
Versions: 1 2 3 4 5 6 7 8 9 10 11 12 13 14 15 16 17 18 19 20 21 22 23 24 25 26 27 28 29 30 31 32 33 34 35 36 37 38 39 40 41 42 43 44 45 46 47 48 49 50
354
ASUS43 KLSX 272007
RWRMO

WEATHER SUMMARY FOR MISSOURI
NATIONAL WEATHER SERVICE SPRINGFIELD MO
300 PM CDT SUN MAY 27 2018

NOTE: "FAIR" INDICATES FEW OR NO CLOUDS BELOW 12,000 FEET WITH NO
       SIGNIFICANT WEATHER AND/OR OBSTRUCTIONS TO VISIBILITY.
       CURRENT SKY AND/OR WEATHER CONDITIONS ARE NOT AVAILABLE FOR
       CHILLICOTHE AND FARMINGTON.

MOZ001>031-035>038-043-044-053-054-272100-
...NORTHERN AND WESTERN MISSOURI...

CITY           SKY/WX    TMP DP  RH WIND       PRES   REMARKS
KANSAS CTY INT MOSUNNY   92  66  42 S8G16     29.89F HX  94
KANSAS C DTWN  SUNNY     95  67  39 CALM      29.86F HX  99
LEE`S SUMMIT   SUNNY     92  67  43 SW6       29.90F HX  95
ST JOSEPH      SUNNY     99  62  29 S9        29.85F HX 100
CHILLICOTHE      N/A     96  64  34 SW5       29.86F HX  98
KIRKSVILLE     SUNNY     94  72  48 W7        29.87F HX 102

$$
MOZ066>068-077>081-088>096-101>105-272100-
...SOUTHWEST MISSOURI...

CITY           SKY/WX    TMP DP  RH WIND       PRES   REMARKS
SPRINGFIELD    SUNNY     91  66  43 SE9       29.91F HX  93
JOPLIN         CLOUDY    90  70  51 VRB3      29.91S HX  95
BRANSON        MOSUNNY   88  68  51 SE7       29.94F HX  91

$$
MOZ032>034-039>042-045>050-055>058-069>072-272100-
...CENTRAL MISSOURI...

CITY           SKY/WX    TMP DP  RH WIND       PRES   REMARKS
COLUMBIA       SUNNY     93  70  46 W12       29.89F HX  99
JEFFERSON CITY MOSUNNY   92  69  47 W8        29.86F HX  97
ROLLA          PTSUNNY   89  70  53 CALM      29.92F HX  94
SEDALIA        SUNNY     91  71  51 VRB3      29.90F HX  97
WHITEMAN AFB   SUNNY     90  71  52 SW7       29.85F HX  96
WARRENSBURG    SUNNY     90  68  48 S5        29.89S HX  93
OSAGE BEACH    SUNNY     91  70  49 NW3       29.90F HX  96

$$
MOZ051-052-059>065-272100-
...EAST CENTRAL MISSOURI...

CITY           SKY/WX    TMP DP  RH WIND       PRES   REMARKS
ST LOUIS INTL  PTSUNNY   93  71  48 NW6       29.88F HX 100
SPIRIT OF STL  MOSUNNY   94  71  47 NW7       29.86F HX 101
ST CHARLES     MOSUNNY   93  75  55 VRB3      29.86F HX 104

$$
MOZ072>076-082>087-097>100-106>115-272100-
...SOUTH CENTRAL AND SOUTHEAST MISSOURI...

CITY           SKY/WX    TMP DP  RH WIND       PRES   REMARKS
CAPE GIRARDEAU FAIR      90  68  48 S5        29.87F HX  94
FARMINGTON     PTSUNNY   90  72  55 S5        29.91F HX  97
POPLAR BLUFF   FAIR      89  69  51 SE3       29.88F HX  93
WEST PLAINS    SUNNY     87  69  54 S6        29.94F HX  91

$$




USA.gov is the U.S. government's official web portal to all federal, state and local government web resources and services.